Location: Unspecified
(0.0000°N, 0.0000°E)
Time: 08:54:54
(UTC+00:00)

SORCE - Visible Passes

Search period start: 26 May 2019 00:00
Search period end: 05 June 2019 00:00
Orbit: 585 x 617 km, 40.0° (Epoch: 25 May)

Date Brightness Start Highest point End Pass type
(mag) Time Alt. Az. Time Alt. Az. Time Alt. Az.
27 May 8.2 04:23:37 14° S 04:25:40 18° SE 04:28:47 10° E visible
28 May 7.1 04:34:07 24° S 04:36:17 38° SE 04:40:32 10° ENE visible
28 May 8.4 18:21:05 10° WSW 18:23:20 14° SW 18:25:37 10° S visible
29 May 6.0 04:44:37 30° SW 04:46:51 89° SE 04:51:25 10° NE visible
30 May 8.9 03:18:23 13° E 03:18:23 13° E 03:19:05 10° E visible
30 May 6.8 04:55:05 22° W 04:57:26 39° NW 05:01:41 10° NNE visible
31 May 8.3 03:28:48 22° ENE 03:28:48 22° ENE 03:30:37 10° ENE visible
31 May 7.8 05:05:30 12° W 05:08:02 18° NW 05:11:11 10° N visible
01 Jun 7.9 03:39:10 28° NE 03:39:10 28° NE 03:41:22 10° NE visible
02 Jun 8.0 03:49:27 22° N 03:49:27 22° N 03:51:30 10° NNE visible
03 Jun 8.4 03:59:41 13° NNW 03:59:41 13° NNW 04:00:46 10° N visible
